Location: El Guaramo
(10.5194°N, 67.1667°W)
Time: 22:00:44
(UTC+00:00)

Cosmos 962 Rocket - Pass Details

Date: 18 April 2024
Orbit: 951 x 998 km, 82.9° (Epoch: 23 May)

Event Time Altitude Azimuth Distance (km) Brightness Sun altitude
Rises 23:39:14 0° 356° (N) 3,698 7.8 -15.1°
Reaches altitude 10° 23:41:45 10° 357° (N) 2,753 7.1 -15.7°
Maximum altitude 23:48:06 89° 88° (E) 1,000 4.5 -17.2°
Drops below altitude 10° 23:54:27 10° 177° (S) 2,758 6.7 -18.7°
Sets 23:56:58 0° 177° (S) 3,705 7.3 -19.3°
